Location: Bridgewater
(44.3670°N, 64.5170°W)
Time: 22:57:54
(UTC-04:00)

Amateur Radio Satellites - All Passes

Search period start: 23 January 2017 22:27
Search period end: 24 January 2017 22:27
Location: Bridgewater, 44.3670°N, 64.5170°W

Satellite Date Start Highest point End Downlink Frequencies (MHz)
Time Altitude Azimuth
CUBEBUG 1 23 Jan 22:31:03 22:34:55 31° 68° (ENE) 22:38:46 437.445
BEESAT 3 23 Jan 22:36:34 22:38:42 14° 36° (NE) 22:40:50 437.485
POPSAT HIP 1 23 Jan 22:48:15 22:48:59 10° 88° (E) 22:49:44 437.405
DUCHIFAT 1 23 Jan 22:54:17 22:55:00 10° 89° (E) 22:55:43 145.980
AISAT 23 Jan 22:57:10 23:01:16 38° 69° (ENE) 23:05:22 437.250
NANOSAT C BR1 23 Jan 23:00:29 23:02:43 14° 90° (E) 23:04:56 145.865
BY70-1 23 Jan 23:09:46 23:12:16 22° 265° (W) 23:14:56 436.1900
UNISAT 6 23 Jan 23:13:03 23:17:15 41° 289° (WNW) 23:21:30 437.425
PRISM 23 Jan 23:18:18 23:20:05 13° 299° (WNW) 23:21:50 437.425
ISS 23 Jan 23:22:47 23:25:37 27° 347° (NNW) 23:28:27 145.825
JAS-2 23 Jan 23:23:40 23:31:01 78° 103° (ESE) 23:38:51 435.910
TIGRISAT 23 Jan 23:25:21 23:29:21 33° 291° (WNW) 23:33:25 435.000
RS-15 23 Jan 23:27:14 23:39:04 77° 119° (ESE) 23:51:24 29.354- 29.394
50 SAT 23 Jan 23:27:21 23:30:49 52° 74° (ENE) 23:34:20 437.505
BEESAT 2 23 Jan 23:29:06 23:32:00 19° 40° (NE) 23:34:54 435.950
VELOX 1 23 Jan 23:29:55 23:34:21 79° 76° (ENE) 23:38:48 145.980
SPROUT 23 Jan 23:30:30 23:34:40 58° 73° (ENE) 23:38:51 437.525
ESTCUBE 1 23 Jan 23:35:34 23:39:44 35° 263° (W) 23:43:56 437.505/2401.250
PCSat 23 Jan 23:36:37 23:41:31 36° 112° (ESE) 23:46:27 145.827
UKube-1 23 Jan 23:41:20 23:45:19 37° 69° (ENE) 23:49:19 .
ANTELSAT 23 Jan 23:41:59 23:45:29 23° 294° (WNW) 23:49:01 437.575/2403.000
YUBILEINY 23 Jan 23:48:53 23:56:19 29° 65° (ENE) 00:03:39 435.215
DX 1 23 Jan 23:49:29 23:53:48 62° 73° (ENE) 23:58:07 434.975-435.025
QB50P1 23 Jan 23:53:43 23:57:53 56° 100° (E) 00:02:03 145.935-145.965
POLYITAN 1 23 Jan 23:59:05 00:03:19 66° 102° (ESE) 00:07:33 437.675
QB50P2 24 Jan 00:00:29 00:04:44 73° 103° (ESE) 00:08:58 145.880/145.840
CUBEBUG 1 24 Jan 00:07:25 00:11:10 27° 265° (W) 00:14:55 437.445
BEESAT 3 24 Jan 00:12:54 00:16:56 86° 56° (NE) 00:20:55 437.485
POPSAT HIP 1 24 Jan 00:21:02 00:25:15 74° 286° (WNW) 00:29:29 437.405
DUCHIFAT 1 24 Jan 00:26:58 00:31:10 74° 285° (WNW) 00:35:21 145.980
AISAT 24 Jan 00:34:23 00:37:50 22° 266° (W) 00:41:19 437.250
NANOSAT C BR1 24 Jan 00:34:39 00:38:46 55° 287° (WNW) 00:42:53 145.865
Cosmos 2504 24 Jan 00:35:47 00:41:47 26° 66° (ENE) 00:47:36 435.465 / 435.565
AIST 1 24 Jan 00:39:17 00:43:33 70° 80° (E) 00:47:46
Cosmos 2491 24 Jan 00:42:36 00:49:30 27° 81° (E) 00:56:25 435.465 / 435.565
TISAT 1 24 Jan 00:44:54 00:48:58 55° 73° (ENE) 00:53:03 437.305
BUGSAT 1 24 Jan 00:45:53 00:49:55 64° 102° (ESE) 00:53:58 437.445
ISS 24 Jan 01:00:06 01:02:47 23° 7° (N) 01:05:29 145.825
Gurwin Techsat 1B 24 Jan 01:00:53 01:03:45 15° 89° (E) 01:06:36 435.225
50 SAT 24 Jan 01:03:29 01:04:21 11° 270° (W) 01:05:13 437.505
BEESAT 2 24 Jan 01:06:09 01:10:09 61° 239° (WSW) 01:14:08 435.950
ITUPSAT 1 24 Jan 01:07:58 01:11:41 23° 63° (ENE) 01:15:24 437.325
SPROUT 24 Jan 01:08:49 01:10:57 13° 270° (W) 01:13:05 437.525
JAS-2 24 Jan 01:09:43 01:15:24 26° 300° (WNW) 01:21:24 435.910
VELOX 1 24 Jan 01:10:22 01:11:21 11° 272° (W) 01:12:20 145.980
UKube-1 24 Jan 01:18:09 01:21:28 21° 266° (W) 01:24:48 .
PCSat 24 Jan 01:19:52 01:24:53 38° 311° (NW) 01:29:57 145.827
DX 1 24 Jan 01:28:17 01:30:24 13° 270° (W) 01:32:30 434.975-435.025
QB50P1 24 Jan 01:30:48 01:33:12 15° 298° (WNW) 01:35:38 145.935-145.965
PHONESAT 2.4 24 Jan 01:32:02 01:33:53 23° 170° (S) 01:35:45 2401.200-2431.200
POLYITAN 1 24 Jan 01:36:32 01:38:35 13° 299° (WNW) 01:40:40 437.675
QB50P2 24 Jan 01:38:14 01:39:57 12° 299° (WNW) 01:41:39 145.880/145.840
BEESAT 24 Jan 01:38:59 01:43:29 44° 69° (ENE) 01:48:01 436.000
SWISSCUBE 24 Jan 01:40:55 01:45:31 51° 71° (ENE) 01:50:09 437.505
RS-15 24 Jan 01:41:25 01:52:46 43° 326° (NNW) 02:04:27 29.354- 29.394
YUBILEINY 24 Jan 01:45:07 01:53:52 69° 267° (W) 02:02:31 435.215
Oscar 19 24 Jan 01:53:37 01:58:49 79° 103° (ESE) 02:03:57 437.125/150
AIST 2 24 Jan 02:01:11 02:04:04 17° 38° (NE) 02:06:57 435.215
M-CUBED/EXP-1 PRIME 24 Jan 02:08:25 02:10:52 15° 59° (ENE) 02:13:13 437.505
CUSAT 1 24 Jan 02:18:31 02:23:42 39° 88° (E) 02:30:07 437.405
AIST 1 24 Jan 02:19:49 02:20:29 10° 278° (W) 02:21:09
TISAT 1 24 Jan 02:22:48 02:24:57 14° 269° (W) 02:27:05 437.305
BUGSAT 1 24 Jan 02:23:02 02:24:47 13° 298° (WNW) 02:26:32 437.445
Cosmos 2504 24 Jan 02:28:32 02:35:44 61° 268° (W) 02:42:44 435.465 / 435.565
ISS 24 Jan 02:36:30 02:39:43 59° 26° (NNE) 02:42:56 145.825
Cosmos 2491 24 Jan 02:36:54 02:45:34 69° 282° (WNW) 02:54:18 435.465 / 435.565
MOZHAYETS 4 24 Jan 02:37:08 02:41:33 50° 72° (ENE) 02:46:01
Gurwin Techsat 1B 24 Jan 02:38:57 02:44:17 77° 287° (WNW) 02:49:35 435.225
AUBIESAT-1 24 Jan 02:40:36 02:43:59 25° 63° (ENE) 02:47:12 437.475
ITUPSAT 1 24 Jan 02:44:41 02:49:14 44° 261° (W) 02:53:49 437.325
ITAMSAT 1 24 Jan 02:45:29 02:49:52 26° 95° (E) 02:54:13 435.822/435.867
KKS-1 24 Jan 02:49:15 02:52:45 23° 65° (ENE) 02:56:16 437.445
AO-7 24 Jan 02:50:22 02:57:06 26° 93° (E) 03:03:45 29.400- 29.500
PHONESAT 2.4 24 Jan 03:05:25 03:07:21 26° 187° (S) 03:09:18 2401.200-2431.200
PCSat 24 Jan 03:09:07 03:09:56 10° 334° (NNW) 03:10:44 145.827
BEESAT 24 Jan 03:17:49 03:21:27 22° 267° (W) 03:25:07 436.000
SWISSCUBE 24 Jan 03:20:17 03:23:36 19° 268° (W) 03:26:56 437.505
STARS 24 Jan 03:31:01 03:34:46 28° 67° (ENE) 03:38:30 437.465
CUBESAT XI-V 24 Jan 03:33:50 03:37:59 32° 68° (ENE) 03:42:10 437.345
Oscar 19 24 Jan 03:34:29 03:37:29 16° 302° (WNW) 03:40:28 437.125/150
AIST 2 24 Jan 03:38:48 03:43:03 76° 238° (WSW) 03:47:16 435.215
M-CUBED/EXP-1 PRIME 24 Jan 03:40:48 03:45:01 56° 254° (WSW) 03:48:56 437.505
YUBILEINY 24 Jan 03:45:10 03:48:52 13° 288° (WNW) 03:52:33 435.215
DANDE 24 Jan 03:48:33 03:52:44 62° 95° (E) 03:58:27 436.750
RS-15 24 Jan 03:59:27 04:09:40 28° 360° (N) 04:19:53 29.354- 29.394
CUSAT 1 24 Jan 04:00:14 04:05:37 38° 293° (WNW) 04:12:14 437.405
ISS 24 Jan 04:13:28 04:15:58 21° 224° (SW) 04:18:27 145.825
AUBIESAT-1 24 Jan 04:14:38 04:18:18 30° 257° (WSW) 04:21:46 437.475
MOZHAYETS 4 24 Jan 04:15:54 04:19:00 18° 269° (W) 04:22:07
Gurwin Techsat 1B 24 Jan 04:21:18 04:23:21 12° 305° (NW) 04:25:23 435.225
ITAMSAT 1 24 Jan 04:24:34 04:29:28 42° 292° (WNW) 04:34:21 435.822/435.867
KKS-1 24 Jan 04:24:58 04:29:06 37° 262° (W) 04:33:15 437.445
GONETS M04 24 Jan 04:37:57 04:42:41 15° 54° (NE) 04:47:25
Cosmos 2499 24 Jan 04:38:37 04:42:01 14° 57° (ENE) 04:45:23 435.465 / 435.565
Cosmos 2491 24 Jan 04:39:37 04:44:20 15° 305° (NW) 04:49:06 435.465 / 435.565
PHONESAT 2.4 24 Jan 04:40:02 04:40:42 11° 202° (SSW) 04:41:21 2401.200-2431.200
BRITE-PL 24 Jan 04:41:47 04:46:00 31° 94° (E) 04:49:55 437.365/2234.400
AO-7 24 Jan 04:42:13 04:50:35 74° 292° (WNW) 04:58:51 29.400- 29.500
STARS 24 Jan 05:07:13 05:11:03 29° 264° (W) 05:14:52 437.465
CUBESAT XI-V 24 Jan 05:11:14 05:15:20 29° 265° (W) 05:19:28 437.345
Cubesat XI-IV 24 Jan 05:11:46 05:12:45 10° 87° (E) 05:13:43 437.490
STRAND 1 24 Jan 05:20:22 05:23:24 16° 59° (ENE) 05:26:25 437.568
HORYU 2 24 Jan 05:23:23 05:27:28 34° 97° (E) 05:31:32 437.375
O/OREOS (USA 219) 24 Jan 05:29:41 05:33:55 44° 107° (ESE) 05:38:10 437.305
DANDE 24 Jan 05:33:15 05:36:25 17° 303° (WNW) 05:40:09 436.750
LilacSat-2 24 Jan 05:37:40 05:40:20 18° 92° (E) 05:43:00 437.200
NOAA 18 24 Jan 05:47:54 05:50:13 13° 88° (E) 05:52:32 137.9125
GOMX 1 24 Jan 06:02:42 06:07:06 81° 104° (ESE) 06:11:16 467.674
CUTE-I 24 Jan 06:04:00 06:08:50 34° 96° (E) 06:13:39 437.470
RS-15 24 Jan 06:14:55 06:26:35 43° 34° (NNE) 06:37:55 29.354- 29.394
BRITE-PL 24 Jan 06:20:18 06:24:26 29° 294° (WNW) 06:28:16 437.365/2234.400
DOVE 4 24 Jan 06:20:50 06:24:52 46° 99° (E) 06:28:52 437.250
Cosmos 2499 24 Jan 06:29:26 06:36:35 75° 80° (E) 06:43:39 435.465 / 435.565
SO-50 24 Jan 06:30:16 06:34:18 28° 115° (ESE) 06:38:17 436.795
GONETS M04 24 Jan 06:32:40 06:41:30 67° 78° (ENE) 06:50:17
AO-7 24 Jan 06:36:29 06:42:00 20° 314° (NW) 06:47:29 29.400- 29.500
PCSat 24 Jan 06:40:55 06:42:41 11° 28° (NNE) 06:44:27 145.827
NOAA 15 24 Jan 06:42:26 06:47:47 76° 103° (ESE) 06:53:04 137.62
Cubesat XI-IV 24 Jan 06:48:15 06:53:38 81° 104° (ESE) 06:58:59 437.490
STRAND 1 24 Jan 06:56:52 07:01:56 76° 256° (WSW) 07:07:05 437.568
HORYU 2 24 Jan 07:00:11 07:03:52 26° 294° (WNW) 07:07:33 437.375
O/OREOS (USA 219) 24 Jan 07:10:02 07:13:31 22° 306° (NW) 07:17:01 437.305
LilacSat-2 24 Jan 07:11:10 07:14:45 36° 289° (WNW) 07:18:20 437.200
CINEMA 3 24 Jan 07:19:11 07:23:16 46° 99° (E) 07:27:28 145.822/145.860
NOAA 18 24 Jan 07:26:06 07:31:36 89° 286° (WNW) 07:37:04 137.9125
CUTE 1.7 + AOD 2 24 Jan 07:28:14 07:32:08 33° 96° (E) 07:36:00 437.475
HO-68 24 Jan 07:40:01 07:46:56 48° 100° (E) 07:53:48 435.675
GOMX 1 24 Jan 07:43:18 07:44:28 11° 302° (WNW) 07:45:37 467.674
CUTE-I 24 Jan 07:44:04 07:48:51 35° 294° (WNW) 07:53:38 437.470
CUBEBUG 2 24 Jan 07:46:14 07:49:46 23° 94° (E) 07:53:22 437.445
COMPASS 1 24 Jan 07:57:56 08:01:40 30° 96° (E) 08:05:23 437.405
CANX-2 24 Jan 07:58:07 08:02:27 82° 105° (ESE) 08:06:44 2200.000
DOVE 4 24 Jan 07:59:37 08:02:14 16° 297° (WNW) 08:04:50 437.250
SEEDS 24 Jan 08:00:23 08:04:33 49° 99° (E) 08:08:39 437.485
AAUSAT CUBESAT 2 24 Jan 08:04:57 08:08:34 28° 95° (E) 08:12:09 437.432
UWE-3 24 Jan 08:05:45 08:09:21 24° 94° (E) 08:13:00 435.000/436.395/437.385
SO-50 24 Jan 08:10:11 08:14:37 40° 312° (NW) 08:19:01 436.795
ZACube-1 24 Jan 08:15:19 08:18:27 19° 92° (E) 08:21:35 437.345
PCSat 24 Jan 08:22:22 08:27:34 43° 51° (NE) 08:32:44 145.827
NOAA 15 24 Jan 08:23:36 08:26:55 17° 302° (WNW) 08:30:14 137.62
Cosmos 2499 24 Jan 08:24:09 08:28:49 19° 280° (W) 08:33:28 435.465 / 435.565
RS-15 24 Jan 08:27:57 08:40:18 78° 241° (WSW) 08:52:09 29.354- 29.394
Cubesat XI-IV 24 Jan 08:29:52 08:33:02 16° 302° (WNW) 08:36:11 437.490
GONETS M04 24 Jan 08:30:27 08:37:36 29° 279° (W) 08:44:46
PRISM 24 Jan 08:31:37 08:35:43 58° 72° (ENE) 08:39:49 437.425
UNISAT 6 24 Jan 08:37:44 08:40:59 22° 65° (ENE) 08:44:16 437.425
Oscar 11 24 Jan 08:43:20 08:47:10 29° 96° (E) 08:50:58 145.826/435.025
TIGRISAT 24 Jan 08:49:24 08:52:55 26° 67° (ENE) 08:56:29 435.000
CINEMA 3 24 Jan 08:57:17 09:00:06 18° 295° (WNW) 09:02:58 145.822/145.860
CUTE 1.7 + AOD 2 24 Jan 09:04:21 09:07:50 24° 293° (WNW) 09:11:17 437.475
ANTELSAT 24 Jan 09:05:13 09:09:11 40° 70° (ENE) 09:13:11 437.575/2403.000
NOAA 18 24 Jan 09:08:34 09:11:29 15° 304° (NW) 09:14:24 137.9125
CUBEBUG 2 24 Jan 09:22:27 09:26:28 36° 290° (WNW) 09:30:34 437.445
HUMSAT D 24 Jan 09:24:50 09:27:33 16° 91° (E) 09:30:15 437.325/437.525
FUNcube-1 24 Jan 09:24:52 09:29:18 89° 103° (ESE) 09:33:49 145.935
HO-68 24 Jan 09:28:02 09:34:29 37° 299° (WNW) 09:40:53 435.675
COMPASS 1 24 Jan 09:33:38 09:37:06 25° 293° (WNW) 09:40:32 437.405
CANX-2 24 Jan 09:36:17 09:37:39 11° 300° (WNW) 09:39:00 2200.000
SEEDS 24 Jan 09:37:06 09:39:51 17° 296° (WNW) 09:42:36 437.485
JAS-2 24 Jan 09:38:44 09:43:45 37° 64° (ENE) 09:49:18 435.910
AAUSAT CUBESAT 2 24 Jan 09:40:26 09:43:58 27° 292° (WNW) 09:47:28 437.432
UWE-3 24 Jan 09:41:51 09:45:52 35° 290° (WNW) 09:49:57 435.000/436.395/437.385
POPSAT HIP 1 24 Jan 09:42:41 09:43:42 11° 60° (ENE) 09:44:43 437.405
DUCHIFAT 1 24 Jan 09:48:10 09:49:02 11° 59° (ENE) 09:49:54 145.980
ZACube-1 24 Jan 09:50:42 09:54:55 46° 288° (WNW) 09:59:13 437.345
NANOSAT C BR1 24 Jan 09:54:38 09:56:45 14° 62° (ENE) 09:58:53 145.865
SO-50 24 Jan 09:55:31 09:56:20 10° 334° (NNW) 09:57:10 436.795
PCSat 24 Jan 10:06:05 10:10:48 31° 250° (WSW) 10:15:30 145.827
PRISM 24 Jan 10:09:24 10:11:22 13° 270° (W) 10:13:20 437.425
UNISAT 6 24 Jan 10:13:34 10:17:30 36° 263° (W) 10:21:28 437.425
DELFI C3 24 Jan 10:19:06 10:23:05 72° 286° (WNW) 10:27:02 145.870
Oscar 11 24 Jan 10:19:30 10:23:14 28° 292° (WNW) 10:26:57 145.826/435.025
TIGRISAT 24 Jan 10:25:49 10:29:32 29° 264° (W) 10:33:17 435.000
RS-15 24 Jan 10:42:43 10:50:36 20° 263° (W) 10:58:22 29.354- 29.394
ANTELSAT 24 Jan 10:43:02 10:46:05 19° 268° (W) 10:49:09 437.575/2403.000
QB50P1 24 Jan 10:47:24 10:51:27 51° 72° (ENE) 10:55:32 145.935-145.965
Cosmos 2491 24 Jan 10:50:21 10:55:03 15° 54° (NE) 10:59:44 435.465 / 435.565
POLYITAN 1 24 Jan 10:52:55 10:57:01 59° 73° (ENE) 11:01:09 437.675
QB50P2 24 Jan 10:54:17 10:58:26 66° 74° (ENE) 11:02:37 145.880/145.840
HUMSAT D 24 Jan 10:59:15 11:03:25 49° 288° (WNW) 11:07:35 437.325/437.525
FUNcube-1 24 Jan 11:03:41 11:04:52 11° 300° (WNW) 11:06:05 145.935
POPSAT HIP 1 24 Jan 11:14:39 11:18:50 82° 259° (W) 11:23:02 437.405
DUCHIFAT 1 24 Jan 11:19:54 11:24:04 83° 257° (WSW) 11:28:15 145.980
VELOX 1 24 Jan 11:20:05 11:22:05 13° 90° (E) 11:24:06 145.980
JAS-2 24 Jan 11:23:58 11:28:52 34° 266° (W) 11:34:19 435.910
ESTCUBE 1 24 Jan 11:25:57 11:30:16 41° 98° (E) 11:34:32 437.505/2401.250
NANOSAT C BR1 24 Jan 11:27:52 11:31:59 62° 259° (WSW) 11:36:09 145.865
Oscar 19 24 Jan 11:34:43 11:38:22 20° 61° (ENE) 11:42:00 437.125/150
BUGSAT 1 24 Jan 11:36:52 11:40:49 54° 73° (ENE) 11:44:45 437.445
BY70-1 24 Jan 11:41:35 11:44:42 52° 287° (WNW) 11:47:35 436.1900
CUBEBUG 1 24 Jan 11:53:29 11:57:41 47° 99° (E) 12:01:50 437.445
AO-7 24 Jan 12:05:24 12:07:56 12° 37° (NE) 12:10:29 29.400- 29.500
AO-85 24 Jan 12:13:55 12:17:29 22° 114° (ESE) 12:20:53 145.980
AISAT 24 Jan 12:21:28 12:25:50 60° 101° (E) 12:30:09 437.250
Gurwin Techsat 1B 24 Jan 12:22:54 12:27:22 28° 64° (ENE) 12:31:52 435.225
50 SAT 24 Jan 12:24:16 12:27:42 45° 99° (E) 12:31:06 437.505
QB50P1 24 Jan 12:25:07 12:27:31 15° 269° (W) 12:29:56 145.935-145.965
POLYITAN 1 24 Jan 12:31:17 12:33:12 13° 270° (W) 12:35:07 437.675
QB50P2 24 Jan 12:33:11 12:34:40 12° 271° (W) 12:36:10 145.880/145.840
DANDE 24 Jan 12:41:31 12:46:17 17° 57° (ENE) 12:51:11 436.750
Cosmos 2491 24 Jan 12:45:05 12:53:51 67° 78° (ENE) 13:02:38 435.465 / 435.565
CUSAT 1 24 Jan 12:49:20 12:56:43 39° 68° (ENE) 13:03:26 437.405
SPROUT 24 Jan 12:50:11 12:54:29 90° 233° (SW) 12:58:44 437.525
YUBILEINY 24 Jan 12:52:41 12:59:58 30° 82° (E) 13:07:17 435.215
VELOX 1 24 Jan 12:54:37 12:58:59 64° 287° (WNW) 13:03:18 145.980
UKube-1 24 Jan 13:02:12 13:06:26 53° 101° (E) 13:10:38 .
ESTCUBE 1 24 Jan 13:03:20 13:06:48 22° 296° (WNW) 13:10:15 437.505/2401.250
AIST 1 24 Jan 13:10:05 13:14:07 37° 92° (E) 13:18:07
DX 1 24 Jan 13:11:56 13:16:18 87° 291° (WNW) 13:20:38 434.975-435.025
Oscar 19 24 Jan 13:12:03 13:17:12 62° 258° (WSW) 13:22:23 437.125/150
BUGSAT 1 24 Jan 13:14:36 13:16:30 13° 269° (W) 13:18:25 437.445
Cosmos 2504 24 Jan 13:16:49 13:22:57 23° 81° (E) 13:28:49 435.465 / 435.565
SO-50 24 Jan 13:21:30 13:22:05 10° 25° (NNE) 13:22:39 436.795
CUBEBUG 1 24 Jan 13:30:40 13:33:36 18° 297° (WNW) 13:36:32 437.445
SWISSCUBE 24 Jan 13:41:42 13:43:13 11° 88° (E) 13:44:44 437.505
AO-7 24 Jan 13:50:48 13:58:32 44° 59° (ENE) 14:06:17 29.400- 29.500
AO-85 24 Jan 13:53:11 13:57:40 48° 309° (NW) 14:01:51 145.980
50 SAT 24 Jan 13:58:50 14:00:31 13° 296° (WNW) 14:02:10 437.505
AISAT 24 Jan 13:59:16 14:01:48 15° 299° (WNW) 14:04:20 437.250
O/OREOS (USA 219) 24 Jan 13:59:39 14:02:20 15° 50° (NE) 14:05:00 437.305
Gurwin Techsat 1B 24 Jan 14:02:08 14:07:08 42° 262° (W) 14:12:10 435.225
TISAT 1 24 Jan 14:02:19 14:06:30 79° 103° (ESE) 14:10:42 437.305
ITAMSAT 1 24 Jan 14:04:50 14:09:47 48° 69° (ENE) 14:14:45 435.822/435.867
DANDE 24 Jan 14:22:25 14:30:25 66° 76° (ENE) 14:38:41 436.750
SPROUT 24 Jan 14:29:23 14:29:42 10° 301° (WNW) 14:30:01 437.525
CUSAT 1 24 Jan 14:31:15 14:38:51 50° 269° (W) 14:45:40 437.405
MOZHAYETS 4 24 Jan 14:33:16 14:34:05 10° 87° (E) 14:34:54
UKube-1 24 Jan 14:39:22 14:42:03 16° 298° (WNW) 14:44:44 .
Cosmos 2491 24 Jan 14:42:54 14:49:59 29° 279° (W) 14:57:05 435.465 / 435.565
ITUPSAT 1 24 Jan 14:43:14 14:47:47 41° 98° (E) 14:52:19 437.325
YUBILEINY 24 Jan 14:47:24 14:56:08 64° 283° (WNW) 15:04:57 435.215
AIST 1 24 Jan 14:48:34 14:51:50 20° 289° (WNW) 14:55:06
DX 1 24 Jan 14:51:19 14:51:45 10° 302° (WNW) 14:52:12 434.975-435.025
SO-50 24 Jan 14:59:30 15:03:48 41° 48° (NE) 15:08:02 436.795
BEESAT 2 24 Jan 15:00:36 15:02:48 15° 110° (ESE) 15:05:02 435.950
Cosmos 2504 24 Jan 15:06:55 15:15:31 79° 279° (W) 15:23:34 435.465 / 435.565
BEESAT 24 Jan 15:14:38 15:19:28 84° 103° (ESE) 15:24:16 436.000
SWISSCUBE 24 Jan 15:16:47 15:21:37 84° 286° (WNW) 15:26:25 437.505
GOMX 1 24 Jan 15:36:09 15:39:00 15° 61° (ENE) 15:41:47 467.674
O/OREOS (USA 219) 24 Jan 15:37:45 15:42:16 72° 248° (WSW) 15:46:46 437.305
AO-85 24 Jan 15:38:30 15:39:02 10° 329° (NNW) 15:39:35 145.980
TISAT 1 24 Jan 15:40:17 15:41:31 11° 300° (WNW) 15:42:44 437.305
BEESAT 3 24 Jan 15:41:20 15:45:14 90° 37° (NE) 15:49:12 437.485
AO-7 24 Jan 15:43:12 15:51:11 49° 259° (W) 15:59:16 29.400- 29.500
ITAMSAT 1 24 Jan 15:45:26 15:49:29 23° 267° (W) 15:53:33 435.822/435.867
BRITE-PL 24 Jan 15:52:33 15:57:59 48° 71° (ENE) 16:03:15 437.365/2234.400
CUTE-I 24 Jan 15:53:00 15:53:31 10° 53° (NE) 15:54:03 437.470
DANDE 24 Jan 16:05:51 16:12:41 32° 274° (W) 16:19:41 436.750
MOZHAYETS 4 24 Jan 16:07:11 16:11:52 86° 282° (WNW) 16:16:31
KKS-1 24 Jan 16:13:57 16:18:01 34° 97° (E) 16:22:02 437.445
ITUPSAT 1 24 Jan 16:21:30 16:25:23 25° 296° (WNW) 16:29:17 437.325
LilacSat-2 24 Jan 16:22:32 16:23:59 12° 62° (ENE) 16:25:26 437.200
HORYU 2 24 Jan 16:22:46 16:26:50 38° 69° (ENE) 16:30:57 437.375
NOAA 15 24 Jan 16:26:15 16:30:08 21° 61° (ENE) 16:34:02 137.62
Cubesat XI-IV 24 Jan 16:33:37 16:37:40 23° 62° (ENE) 16:41:45 437.490
BEESAT 2 24 Jan 16:36:14 16:40:08 57° 308° (NW) 16:44:06 435.950
SO-50 24 Jan 16:40:21 16:44:04 26° 246° (WSW) 16:47:46 436.795
YUBILEINY 24 Jan 16:50:41 16:55:03 14° 307° (NW) 16:59:26 435.215
M-CUBED/EXP-1 PRIME 24 Jan 16:52:29 16:55:48 76° 110° (ESE) 16:59:02 437.505
STARS 24 Jan 16:54:11 16:58:20 42° 99° (E) 17:02:29 437.465
BEESAT 24 Jan 16:54:20 16:56:34 13° 302° (WNW) 16:58:48 436.000
SWISSCUBE 24 Jan 16:57:02 16:58:38 12° 303° (WNW) 17:00:12 437.505
Cosmos 2504 24 Jan 17:04:59 17:10:11 17° 300° (WNW) 17:15:13 435.465 / 435.565
CUBESAT XI-V 24 Jan 17:05:17 17:09:56 61° 101° (E) 17:14:32 437.345
GOMX 1 24 Jan 17:11:11 17:16:30 82° 257° (WSW) 17:21:33 467.674
NOAA 18 24 Jan 17:14:37 17:19:20 31° 64° (ENE) 17:24:04 137.9125
BEESAT 3 24 Jan 17:21:20 17:23:26 14° 324° (NW) 17:25:35 437.485
Cosmos 2499 24 Jan 17:22:35 17:23:21 10° 74° (ENE) 17:24:07 435.465 / 435.565
AUBIESAT-1 24 Jan 17:25:12 17:28:26 49° 292° (WNW) 17:31:36 437.475
DOVE 4 24 Jan 17:27:08 17:31:55 61° 74° (ENE) 17:36:27 437.250
CUTE-I 24 Jan 17:27:18 17:32:32 64° 72° (ENE) 17:37:49 437.470
BRITE-PL 24 Jan 17:31:51 17:36:35 27° 267° (W) 17:41:14 437.365/2234.400
AIST 2 24 Jan 17:39:20 17:41:38 15° 110° (ESE) 17:43:58 435.215
GONETS M04 24 Jan 17:44:43 17:48:47 14° 73° (ENE) 17:52:51
MOZHAYETS 4 24 Jan 17:46:57 17:48:16 11° 302° (WNW) 17:49:35
KKS-1 24 Jan 17:50:48 17:54:25 25° 294° (WNW) 17:58:00 437.445
LilacSat-2 24 Jan 17:54:03 17:57:47 59° 260° (W) 18:01:34 437.200
HORYU 2 24 Jan 18:00:08 18:03:31 22° 266° (W) 18:06:56 437.375
NOAA 15 24 Jan 18:04:14 18:09:27 59° 259° (WSW) 18:14:44 137.62
HO-68 24 Jan 18:10:13 18:16:54 43° 63° (ENE) 18:23:35 435.675
Cubesat XI-IV 24 Jan 18:12:11 18:17:22 54° 260° (W) 18:22:36 437.490
BEESAT 2 24 Jan 18:17:54 18:18:48 11° 328° (NNW) 18:19:42 435.950
CINEMA 3 24 Jan 18:22:19 18:26:30 50° 73° (ENE) 18:30:35 145.822/145.860
CUTE 1.7 + AOD 2 24 Jan 18:22:23 18:26:03 29° 68° (ENE) 18:29:45 437.475
STARS 24 Jan 18:31:10 18:34:25 21° 296° (WNW) 18:37:39 437.465
CUBESAT XI-V 24 Jan 18:43:53 18:46:49 17° 298° (WNW) 18:49:44 437.345
CUBEBUG 2 24 Jan 18:46:23 18:49:35 22° 66° (ENE) 18:52:48 437.445
COMPASS 1 24 Jan 18:50:08 18:53:38 26° 67° (ENE) 18:57:09 437.405
CANX-2 24 Jan 18:51:58 18:56:12 69° 74° (ENE) 19:00:29 2200.000
SEEDS 24 Jan 18:53:19 18:57:17 41° 71° (ENE) 19:01:18 437.485
GOMX 1 24 Jan 18:54:23 18:55:12 10° 273° (W) 18:56:01 467.674
NOAA 18 24 Jan 18:54:42 18:59:51 41° 261° (W) 19:05:01 137.9125
AAUSAT CUBESAT 2 24 Jan 18:56:42 19:00:02 24° 67° (ENE) 19:03:24 437.432
UWE-3 24 Jan 19:04:45 19:07:57 22° 66° (ENE) 19:11:12 435.000/436.395/437.385
STRAND 1 24 Jan 19:05:54 19:10:31 32° 96° (E) 19:15:07 437.568
Cosmos 2499 24 Jan 19:06:51 19:14:57 61° 93° (E) 19:22:28 435.465 / 435.565
DOVE 4 24 Jan 19:07:03 19:09:55 16° 269° (W) 19:12:43 437.250
CUTE-I 24 Jan 19:09:34 19:13:03 18° 269° (W) 19:16:33 437.470
ZACube-1 24 Jan 19:13:18 19:16:00 17° 64° (ENE) 19:18:43 437.345
AIST 2 24 Jan 19:15:32 19:19:37 61° 308° (NW) 19:23:47 435.215
GONETS M04 24 Jan 19:35:15 19:43:53 72° 94° (E) 19:52:38
Oscar 11 24 Jan 19:39:38 19:43:18 28° 68° (ENE) 19:47:00 145.826/435.025
HO-68 24 Jan 19:57:54 20:04:36 41° 262° (W) 20:11:22 435.675
CUTE 1.7 + AOD 2 24 Jan 19:58:13 20:01:51 27° 265° (W) 20:05:32 437.475
CINEMA 3 24 Jan 20:01:25 20:03:55 15° 269° (W) 20:06:24 145.822/145.860
HUMSAT D 24 Jan 20:18:18 20:20:30 14° 62° (ENE) 20:22:43 437.325/437.525
FUNcube-1 24 Jan 20:21:45 20:25:53 82° 77° (ENE) 20:30:05 145.935
CUBEBUG 2 24 Jan 20:22:16 20:26:02 33° 263° (W) 20:29:49 437.445
COMPASS 1 24 Jan 20:25:23 20:29:05 30° 265° (W) 20:32:48 437.405
SEEDS 24 Jan 20:30:09 20:33:10 19° 268° (W) 20:36:12 437.485
CANX-2 24 Jan 20:31:07 20:32:32 11° 272° (W) 20:33:57 2200.000
AAUSAT CUBESAT 2 24 Jan 20:31:35 20:35:21 32° 264° (W) 20:39:10 437.432
UWE-3 24 Jan 20:40:29 20:44:15 33° 263° (W) 20:48:03 435.000/436.395/437.385
AO-85 24 Jan 20:42:59 20:46:24 27° 45° (NE) 20:49:47 145.980
STRAND 1 24 Jan 20:45:04 20:49:41 34° 293° (WNW) 20:54:16 437.568
ZACube-1 24 Jan 20:47:57 20:51:55 46° 261° (W) 20:55:59 437.345
RS-15 24 Jan 20:48:25 20:53:30 14° 92° (E) 20:58:40 29.354- 29.394
ISS 24 Jan 20:53:31 20:56:40 47° 143° (SE) 20:59:49 145.825
AIST 2 24 Jan 20:57:24 20:58:59 12° 328° (NNW) 21:00:33 435.215
Cosmos 2499 24 Jan 21:01:33 21:08:30 30° 291° (WNW) 21:15:04 435.465 / 435.565
DELFI C3 24 Jan 21:05:37 21:09:39 79° 74° (ENE) 21:13:41 145.870
Oscar 11 24 Jan 21:15:36 21:19:22 29° 265° (W) 21:23:10 145.826/435.025
GONETS M04 24 Jan 21:34:25 21:41:34 27° 296° (WNW) 21:48:48
PRISM 24 Jan 21:46:27 21:50:35 76° 103° (ESE) 21:54:39 437.425
HUMSAT D 24 Jan 21:51:33 21:55:37 58° 260° (W) 21:59:46 437.325/437.525
BY70-1 24 Jan 21:56:24 21:59:15 31° 71° (ENE) 22:02:14 436.1900
UNISAT 6 24 Jan 22:02:49 22:07:02 38° 98° (E) 22:11:18 437.425
TIGRISAT 24 Jan 22:14:32 22:18:52 47° 99° (E) 22:23:17 435.000
VELOX 1 24 Jan 22:18:48 22:21:26 16° 62° (ENE) 22:24:05 145.980
BEESAT 3 24 Jan 22:20:22 22:22:31 14° 36° (NE) 22:24:39 437.485
